EST,Max TemperatureF,Mean TemperatureF,Min TemperatureF,Max Dew PointF,MeanDew PointF,Min DewpointF,Max Humidity, Mean Humidity, Min Humidity, Max Sea Level PressureIn, Mean Sea Level PressureIn, Min Sea Level PressureIn, Max VisibilityMiles, Mean VisibilityMiles, Min VisibilityMiles, Max Wind SpeedMPH, Mean Wind SpeedMPH, Max Gust SpeedMPH,PrecipitationIn, CloudCover, Events, WindDirDegrees
2013-2-1,14,9,3,7,2,-2,87,74,61,30.38,30.24,30.02,10,4,1,23,12,28,0.05,6,Snow,241
2013-2-2,25,20,14,21,14,7,91,79,67,30.25,30.06,29.95,10,3,1,16,8,20,0.17,8,Snow,225
2013-2-3,21,16,11,16,11,6,88,78,67,30.08,30.00,29.93,10,5,1,21,9,26,0.07,8,Snow,248
2013-2-4,26,22,18,19,18,12,92,83,73,30.07,29.95,29.86,10,5,0,10,5,23,0.21,8,Fog-Snow,116
2013-2-5,31,22,13,27,21,11,92,78,63,30.04,29.90,29.80,10,5,0,18,8,22,0.10,7,Fog-Snow,238
2013-2-6,34,26,17,23,19,16,84,68,51,30.28,30.20,30.06,10,10,6,14,6,16,0.00,4,,193
2013-2-7,40,34,27,32,27,22,96,78,59,30.19,30.01,29.81,8,5,2,16,8,20,0.17,6,Rain,110
2013-2-8,34,30,25,32,24,18,96,80,63,30.40,30.13,29.83,10,8,1,28,15,36,0.01,7,Snow,344
2013-2-9,35,24,13,23,19,12,91,75,59,30.44,30.35,30.19,10,9,5,17,8,21,0.00,1,,134
2013-2-10,49,39,29,45,31,21,93,79,64,30.17,29.90,29.59,10,9,4,22,13,29,0.14,7,Rain,152
2013-2-11,50,41,31,45,26,20,86,73,60,30.00,29.76,29.58,10,10,7,33,21,44,T,8,Rain-Snow,252
2013-2-12,32,28,23,21,20,18,81,72,63,30.12,30.05,29.95,10,10,8,20,9,25,0.00,8,,267
2013-2-13,44,32,20,29,24,17,91,72,53,29.97,29.84,29.75,10,9,4,17,7,22,0.00,1,,206
2013-2-14,41,37,33,32,28,19,82,67,52,29.97,29.79,29.70,10,10,7,25,13,32,0.00,8,,239
2013-2-15,34,27,20,27,21,11,92,74,56,30.19,30.08,29.97,10,6,1,18,8,24,0.06,7,Snow,325
2013-2-16,24,17,10,19,11,5,84,68,51,30.17,30.11,30.06,10,5,0,22,10,28,0.02,7,Snow,291
2013-2-17,28,20,11,13,11,7,88,64,39,30.25,30.17,30.11,10,7,1,13,5,16,0.03,5,Snow,197
2013-2-18,52,39,25,43,28,12,89,70,50,30.14,29.82,29.47,10,10,5,32,18,43,0.15,4,Rain,173
2013-2-19,45,30,15,43,17,8,92,80,67,30.11,29.81,29.45,10,4,0,32,19,38,0.16,8,Fog-Rain-Snow,264
2013-2-20,22,19,15,18,12,9,88,78,68,30.35,30.21,30.07,7,2,1,17,12,23,0.11,8,Snow,294
2013-2-21,27,24,20,18,16,14,84,76,68,30.40,30.31,30.11,10,10,9,28,9,33,T,8,,78
2013-2-22,34,28,21,31,23,15,92,81,69,30.10,29.93,29.84,10,5,1,29,14,35,0.28,8,Rain-Snow,148
2013-2-23,29,27,25,22,19,17,81,72,63,29.99,29.95,29.90,10,10,8,20,12,23,0.00,8,,236
2013-2-24,36,28,20,22,19,15,84,70,56,30.19,30.09,29.97,10,9,5,13,6,15,0.00,3,,250
2013-2-25,41,30,18,25,21,15,92,71,50,30.23,30.15,30.05,10,9,4,13,5,16,0.00,0,,100
2013-2-26,35,33,31,31,28,21,89,73,56,30.02,29.62,29.46,10,5,1,25,12,37,0.52,7,Rain-Snow,72
2013-2-27,35,34,32,33,31,30,96,93,89,29.63,29.54,29.46,8,3,0,13,6,15,0.24,8,Fog-Snow,266
2013-2-28,37,35,32,32,29,26,96,86,75,30.01,29.82,29.62,10,10,5,22,13,26,T,8,Snow,344